This demonstration page uses our WeatherBlox Daily Observations layout. Learn more.

Left ArrowRight Arrow

36.19886, -115.1175

Hourly Observations for December 19, 2020

Temp ( °F °C ) Dew Point ( °F °C ) Humidity (%) Winds ( mph kmh ) Pressure ( in mb ) Visibility ( mi km ) Precip ( " mm )
12:53 am 00:53 Clear 45 7.2 21 -6.1 39 39 W 9 15 30.36 1028 10 16 N/A
1:53 am 01:53 Clear 45 7.2 21 -6.1 39 39 N 6 9 30.38 1029 10 16 N/A
2:53 am 02:53 Clear 43 6.1 20 -6.7 40 40 NNW 8 13 30.37 1029 10 16 N/A
3:53 am 03:53 Clear 42 5.6 21 -6.1 43 43 NNW 6 9 30.39 1029 10 16 N/A
4:53 am 04:53 Clear 41 5 20 -6.7 43 43 W 7 11 30.39 1029 10 16 N/A
5:53 am 05:53 Clear 39 3.9 20 -6.7 46 46 NW 5 7 30.40 1030 10 16 N/A
6:53 am 06:53 Sunny 39 3.9 20 -6.7 46 46 NNW 5 7 30.41 1030 10 16 N/A
7:53 am 07:53 Sunny 42 5.6 21 -6.1 43 43 NW 6 9 30.43 1031 10 16 N/A
8:53 am 08:53 Sunny 47 8.3 20 -6.7 34 34 NW 12 19 30.44 1031 10 16 N/A
9:53 am 09:53 Sunny 51 10.6 20 -6.7 29 29 N 3 6 30.43 1031 10 16 N/A
10:53 am 10:53 Sunny 52 11.1 21 -6.1 30 30 N N/A 30.41 1030 10 16 N/A
11:53 am 11:53 Sunny 54 12.2 21 -6.1 28 28 N N/A 30.38 1029 10 16 N/A
12:53 pm 12:53 Sunny 56 13.3 21 -6.1 26 26 N N/A 30.35 1028 10 16 N/A
1:53 pm 13:53 Sunny 57 13.9 22 -5.6 26 26 ESE 3 6 30.33 1027 10 16 N/A
2:53 pm 14:53 Sunny 58 14.4 22 -5.6 25 25 VRB 3 6 30.31 1027 10 16 N/A
3:53 pm 15:53 Sunny 57 13.9 21 -6.1 25 25 N N/A 30.32 1027 10 16 N/A
4:53 pm 16:53 Clear 53 11.7 22 -5.6 30 30 E 5 7 30.33 1027 10 16 N/A
5:53 pm 17:53 Clear 52 11.1 23 -5 32 32 NE 3 6 30.36 1028 10 16 N/A
6:53 pm 18:53 Clear 48 8.9 24 -4.4 39 39 W 7 11 30.38 1029 10 16 N/A
7:53 pm 19:53 Clear 46 7.8 25 -3.9 44 44 WNW 5 7 30.39 1029 10 16 N/A
8:53 pm 20:53 Clear 44 6.7 25 -3.9 47 47 WNW 5 7 30.39 1029 10 16 N/A
9:53 pm 21:53 Clear 43 6.1 24 -4.4 47 47 NW 3 6 30.39 1029 10 16 N/A
10:53 pm 22:53 Clear 41 5 23 -5 49 49 NW 7 11 30.39 1029 10 16 N/A
11:53 pm 23:53 Clear 40 4.4 22 -5.6 49 49 WNW 6 9 30.39 1029 10 16 N/A

Powered by AerisWeather